Regional Weather Roundup
Issued by NWS

Home | Current Version | Previous Version | Text Only | Print | Product List | Glossary On
Versions: 1 2 3 4 5 6 7 8 9 10 11 12 13 14 15 16 17 18 19 20 21 22 23 24 25 26 27 28 29 30 31 32 33 34 35 36 37 38 39 40 41 42 43 44 45 46 47 48 49 50
000
ASUS43 KMKX 291021
RWRWI

WISCONSIN REGIONAL WEATHER ROUNDUP
NATIONAL WEATHER SERVICE MILWAUKEE/SULLIVAN WI
500 AM CDT SUN MAY 29 2016

NOTE: "FAIR" INDICATES FEW OR NO CLOUDS BELOW 12,000 FEET WITH NO
SIGNIFICANT WEATHER AND/OR OBSTRUCTIONS TO VISIBILITY.

WIZ001-002-006>008-014>016-023>028-291100-
NORTHWEST WISCONSIN

CITY           SKY/WX    TMP DP  RH WIND       PRES   REMARKS
SUPERIOR ARPT  CLOUDY    53  53 100 W3        29.79S FOG
ASHLAND        CLOUDY    54  53  97 SW3       29.79S FOG
HAYWARD        CLOUDY    58  57  97 SW5       29.81S
SIREN          CLOUDY    59  58  97 W7        29.83R
CUMBERLAND     CLOUDY    59  57  94 W7        29.82S
RICE LAKE      CLOUDY    60  58  92 CALM      29.83S
CHETEK         CLOUDY    60  60 100 CALM      29.82S
LADYSMITH      CLOUDY    62  61  97 SW8       29.83S
EAU CLAIRE     CLOUDY    61  60  97 SW5       29.82R
MENOMONIE      CLOUDY    61  61  99 SW5       29.83S
NEW RICHMOND   CLOUDY    60  60 100 W7        29.84R
OSCEOLA        CLOUDY    61  61 100 W3        29.86R
$$

WIZ003>005-009-010-017-018-291100-
NORTH CENTRAL WISCONSIN

CITY           SKY/WX    TMP DP  RH WIND       PRES   REMARKS
MANITOWISH WTR NOT AVBL
ARBOR VITAE    CLOUDY    60  58  95 SW5       29.81S
WOODRUFF       CLOUDY    60  58  95 SW5       29.81S
RHINELANDER    MOCLDY    60  58  92 SW8       29.83S
EAGLE RIVER      N/A     60  59  97 SW8       29.82R
LAND O LAKES   MOCLDY    61  60  97 SW5       29.82S
PHILLIPS       CLOUDY    59  59 100 SW7       29.81R FOG
TOMAHAWK       CLOUDY    58  57  96 CALM      29.84R
MEDFORD        CLOUDY    58  58 100 SW5       29.83S
MERRILL        CLOUDY    62  61  97 SW7       29.84S
$$

WIZ029-030-035-036-043>047-291100-
CENTRAL WISCONSIN

CITY           SKY/WX    TMP DP  RH WIND       PRES   REMARKS
WAUSAU         CLOUDY    65  61  87 SW7       29.82S
MOSINEE        CLOUDY    61  61 100 S7        29.84S
MARSHFIELD     CLOUDY    60  58  92 SW5       29.83R FOG
STEVENS POINT  CLOUDY    60  60  99 S5        29.84S
WAUPACA        CLEAR     63  63  99 CALM      29.85S FOG
WAUTOMA        CLEAR     62  61  96 S6        29.86R
WISC RAPIDS    MOCLDY    63  59  87 S5        29.84F
CAMP DOUGLAS   PTCLDY    62  62 100 VRB3      29.84R
$$

WIZ011>013-019>022-031-037>040-048>050-291100-
NORTHEAST WISCONSIN

CITY           SKY/WX    TMP DP  RH WIND       PRES   REMARKS
ANTIGO         CLOUDY    61  60  97 SW8       29.85S
SHAWANO        CLEAR     64  62  91 CALM      29.85R
OCONTO         CLEAR    N/A N/A N/A CALM      29.84S
STURGEON BAY   NOT AVBL
GREEN BAY      CLEAR     65  62  90 S6        29.85S
MANITOWOC      CLEAR     57  55  94 S3        29.89R FOG
APPLETON       CLEAR     63  61  94 S7        29.85R
CLINTONVILLE   CLEAR     63  61  94 S6        29.84S
OSHKOSH        CLEAR     63  61  93 S8        29.86S
$$

WIZ032>034-041-042-053>061-291100-
SOUTHWEST WISCONSIN

CITY           SKY/WX    TMP DP  RH WIND       PRES   REMARKS
LA CROSSE      CLOUDY    64  60  87 SW7       29.83S
SPARTA         CLOUDY    62  61  96 CALM      29.85R
VIROQUA        CLOUDY    61  60  97 SW8       29.86R
BOSCOBEL       CLOUDY    65  61  87 SW6       29.86R
PRAIRIE DU CHI CLOUDY    64  58  82 SW8       29.86S
PLATTEVILLE    PTCLDY    63  60  90 SW10      29.90R
$$

WIZ056-057-062-063-064-067-068-291100-
SOUTH CENTRAL WISCONSIN

CITY           SKY/WX    TMP DP  RH WIND       PRES   REMARKS
REEDSBURG      PTCLDY    60  60  98 S7        29.85S
BARABOO/DELLS  CLEAR     60  58  91 S5        29.86S
LONE ROCK      CLOUDY    64  59  83 SW9       29.86S
MINERAL POINT  MOCLDY    63  61  94 SW10      29.89R
MADISON        CLEAR     64  59  83 S9        29.87S
MIDDLETON      CLEAR     63  59  87 SW6       29.88S
WATERTOWN      PTCLDY    62  61  96 S5        29.89S
MONROE         MOCLDY    63  59  88 S10       29.90S
JANESVILLE     CLEAR     64  63  94 S8        29.91R
$$

WIZ051-052-058>065-066-070>072-291100-
SOUTHEAST WISCONSIN

CITY           SKY/WX    TMP DP  RH WIND       PRES   REMARKS
MILWAUKEE      PTCLDY    64  62  93 S7        29.92R
WAUKESHA       CLEAR     61  59  94 S5        29.93R
MILWAUKEE/TIMM CLEAR     63  59  88 S5        29.92R
RACINE         CLEAR     63  60  90 SW6       29.94R
BURLINGTON     PTCLDY    62  61  97 S3        29.92S
KENOSHA        CLEAR     63  61  93 S6        29.93S
FOND DU LAC    CLEAR     65  61  87 S10       29.88R
SHEBOYGAN      CLEAR     60  59  96 S6        29.89R
WEST BEND      CLEAR     61  61 100 S5        29.90S
JUNEAU         PTCLDY    62  60  93 S8        29.90S
$$

LSZ147-162-291100-
LAKE SUPERIOR

STATION/POSITION TIME  TEMP    WIND        PRES    WAVE
                       AIR SEA DIR/SP/G            HT/PER
                 (UTC) (F)     (DEG/KT/KT) (MB)    (FT/S)
W MID LAKE BUOY  0950   40 38  200/  4/  6 1008.0F   1
DEVILS ISLAND    1000   44     250/  8/ 11 1008.7F
SAXON HARBOR     0940   51        CALM     1007.8F
$$

LMZ867-665-643>646-291100-
LAKE MICHIGAN

STATION/POSITION TIME  TEMP    WIND        PRES    WAVE
                       AIR SEA DIR/SP/G            HT/PER
                 (UTC) (F)     (DEG/KT/KT) (MB)    (FT/S)
CHAMBERS ISLAND  0900   62     150/  4/  8 1010.5S
N MID LAKE BUOY  0950   51 46  190/ 14/ 14 1011.1R   3/ 5
NORTHPORT PIER   0900   55     150/  9/ 14 1011.2R
SISTER BAY       0905   55     180/ 14/ 18   N/A
ALGOMA LAKESHORE 0902          210/  6/  8   N/A
KEWAUNEE LAKESHO 0900   51     170/ 10/ 11 1010.8R
SHEBOYGAN LAKESH 1000   55     170/ 12/ 13 1012.4R
PORT WASHINGTON  0940   51     200/  3/  5 1013.2S
S MID LAKE BUOY  0950   56 50  190/ 12/ 14 1013.6R   1/ 4
KENOSHA   LAKESH 1000   63     210/  7/  9 1013.5S
$$

TC  - TEMPERATURE IN CELSIUS
VSB - VISIBILITY IN STATUTE MILES
WCI - WIND CHILL INDEX
HX  - HEAT INDEX





USA.gov is the U.S. government's official web portal to all federal, state and local government web resources and services.